Flag for U.S.A. Weather past 2 weeks in San Francisco, California, U.S.A.

Now
73 °F

Scattered clouds.


Feels Like: 76 °F
Forecast: 58 / 67 °F
Wind: 12 mph from Southwest

Location: San Francisco International Airport

Current Time: Oct 24, 2014 at 2:39:49 PM

Latest Report: Oct 24, 2014 at 1:56 PM


Visibility: 10 mi

Pressure: 29.91 "Hg

Humidity: 62%

Dew point: 59 °F

Location of San FranciscoLocation

Historic Weather in San Francisco — Graph

°F

San Francisco temperature yesterday

Maximum temperature yesterday: 74 °F (at 3:56 PM)
Minimum temperature yesterday: 63 °F (at 1:56 AM)
Average temperature yesterday: 67 °F

Past Weeks' High & Low Weather Summary

 TemperatureHumidityPressure
High90 °F (Oct 12, 1:56 PM)94% (Oct 20, 9:56 AM)30.11 "Hg (Oct 20, 9:56 AM)
Low57 °F (Oct 21, 5:56 AM)13% (Oct 12, 1:56 PM)26.00 "Hg (Oct 16, 10:20 PM)
Average67 °F70%29.95 "Hg
* Reported Oct 9 12:56 PM — Oct 24 12:56 PM, San Francisco, Weather by CustomWeather, © 2014

Note: Actual official high and low records may vary slightly from our data, if they occured in-between our weather recording intervals... More about our weather records

Advertising

San Francisco weather history for previous 24 hours

 ConditionsComfort  
Time TempWeatherWind HumidityBarometerVisibility
12:56 PM
Oct 24
70 °FPassing clouds.5 mph68%29.93 "Hg10 mi
11:56 AM69 °FPassing clouds.5 mph68%29.95 "Hg10 mi
10:56 AM68 °FPassing clouds.7 mph73%29.96 "Hg10 mi
9:56 AM66 °FPassing clouds.6 mph73%29.97 "Hg10 mi
8:56 AM64 °FPassing clouds.8 mph75%29.97 "Hg10 mi
7:56 AM61 °FPassing clouds.6 mph83%29.96 "Hg10 mi
6:56 AM61 °FPassing clouds.3 mph83%29.95 "Hg10 mi
5:56 AM61 °FClear.3 mph83%29.95 "Hg10 mi
4:56 AM62 °FPassing clouds.No wind80%29.95 "Hg10 mi
3:56 AM63 °FPassing clouds.5 mph78%29.96 "Hg10 mi
2:56 AM66 °FPassing clouds.3 mph81%29.96 "Hg10 mi
1:56 AM66 °FPassing clouds.10 mph78%29.97 "Hg10 mi
12:56 AM65 °FPassing clouds.3 mph87%29.98 "Hg10 mi
11:56 PM
Oct 23
64 °FClear.3 mph87%29.98 "Hg10 mi
10:56 PM64 °FClear.3 mph90%29.98 "Hg10 mi
9:56 PM65 °FClear.5 mph87%29.97 "Hg10 mi
8:56 PM66 °FClear.9 mph84%29.97 "Hg10 mi
7:56 PM68 °FClear.12 mph78%29.96 "Hg10 mi
6:56 PM69 °FPassing clouds.12 mph76%29.97 "Hg10 mi
5:56 PM70 °FScattered clouds.10 mph73%29.97 "Hg10 mi
4:56 PM72 °FScattered clouds.14 mph66%29.98 "Hg10 mi
3:56 PM74 °FPartly sunny.10 mph57%29.99 "Hg10 mi
2:56 PM73 °FPartly sunny.6 mph69%30.01 "Hg10 mi
Weather by CustomWeather, © 2014

See weather overviewHow to use our weather pages